Regional Weather Roundup
Issued by NWS Raleigh/Durham, NC

Home | Current Version | Previous Version | Text Only | Print | Product List | Glossary On
Versions: 1 2 3 4 5 6 7 8 9 10 11 12 13 14 15 16 17 18 19 20 21 22 23 24 25 26 27 28 29 30 31 32 33 34 35 36 37 38 39 40 41 42 43 44 45 46 47 48 49 50
000
ASUS42 KRAH 271510
RWRRAH
NORTH CAROLINA WEATHER ROUNDUP
NATIONAL WEATHER SERVICE RALEIGH NC
1000 AM EST FRI FEB 27 2015

NOTE: "FAIR" INDICATES FEW OR NO CLOUDS BELOW 12,000 FEET WITH NO
SIGNIFICANT WEATHER AND/OR OBSTRUCTIONS TO VISIBILITY.

NCZ001-053-055-056-065-067-271600-
WESTERN NORTH CAROLINA

CITY           SKY/WX    TMP DP  RH WIND       PRES   REMARKS
ASHEVILLE      MOSUNNY   31  19  61 N12       30.33R WCI  22
JEFFERSON      CLOUDY    26  15  64 W10       30.24R WCI  15
MORGANTON      CLOUDY    35  25  66 CALM      30.38R
HICKORY        CLOUDY    34  26  72 CALM      30.34R
RUTHERFORDTON  SUNNY     39  28  63 CALM      30.35R
MOUNT AIRY     SUNNY     34  22  60 N8        30.36R WCI  27
BOONE          SUNNY     25  17  73 NW7G22    30.26R WCI  17
$$

NCZ021-022-025-041-071-084-088-271600-
CENTRAL NORTH CAROLINA

CITY           SKY/WX    TMP DP  RH WIND       PRES   REMARKS
CHARLOTTE      CLOUDY    39  30  70 N6        30.36R WCI  35
GREENSBORO     CLOUDY    32  23  69 N8        30.34R WCI  25
WINSTON-SALEM  CLOUDY    34  22  61 NE8       30.36R WCI  27
RALEIGH-DURHAM MOSUNNY   36  26  67 N7        30.37R WCI  30
FORT BRAGG     SUNNY     42  31  64 VRB5      30.36R
FAYETTEVILLE   SUNNY     41  30  65 NE6       30.37R
BURLINGTON     CLOUDY    32  26  78 N6        30.36R WCI  26
LAURINBURG     SUNNY     41  32  70 E6        30.37R
$$

NCZ011-015-027-028-043-044-047-080-103-271600-
NORTHEASTERN NORTH CAROLINA

CITY           SKY/WX    TMP DP  RH WIND       PRES   REMARKS
ROCKY MT-WILSO SUNNY     35  31  85 NW7       30.37R WCI  29
GREENVILLE     SUNNY     36  32  87 N5        30.37S WCI  32
WASHINGTON     MOSUNNY   36  29  76 N6        30.37S WCI  31
ELIZABETH CITY SUNNY     36  26  67 N6        30.37R WCI  31
MANTEO         PTSUNNY   37  28  70 N13       30.35S WCI  29
CAPE HATTERAS  PTSUNNY   38  32  79 VRB6      30.33R WCI  33
$$

NCZ078-087-090-091-093-098-101-271600-
SOUTHEASTERN NORTH CAROLINA

CITY           SKY/WX    TMP DP  RH WIND       PRES   REMARKS
LUMBERTON      MOSUNNY   41  31  67 N8        30.37R
GOLDSBORO      SUNNY     39  38  97 CALM      30.35R
KINSTON        SUNNY     39  34  81 N3        30.37R
KENANSVILLE    PTSUNNY   38  32  78 N3        30.38R
NEW BERN       MOSUNNY   37  28  70 N8        30.37R WCI  31
CHERRY POINT   PTSUNNY   40  28  62 NE10      30.36R WCI  33
BEAUFORT       PTSUNNY   39  28  64 N16       30.34R WCI  30
JACKSONVILLE   PTSUNNY   39  28  64 N10       30.36R WCI  32
WILMINGTON     PTSUNNY   40  30  67 NE9       30.35R WCI  34
$$




USA.gov is the U.S. government's official web portal to all federal, state and local government web resources and services.